COSMOS 1953

Last updated on Thu Nov 21 2024 00:02:12 GMT+0000 (Coordinated Universal Time)

1 19210U 88050A 24325.58825089 .00014114 00000+0 66611-3 0 9998 2 19210 82.5120 271.9786 0013508 1.4185 358.7085 15.19261230965577
UTC large
Height (km)
Speed (km/s)
/
Latitude / Longitude
Inclination (degrees)
Orbital Period (minutes)
Azimuth
Elevation
Range (km)
Doppler Factor

Next 0 passes for location: London (51.5072 / 0.1276)

Sorry there are no passes over London.